Location: Banska Bystrica
(0.0000°N, 19.1500°E)
Time: 05:45:25
(UTC+02:00)

GPS 2-14 Rocket1 - Pass Details

Date: 19 February 2019
Orbit: 477 x 543 km, 20.7° (Epoch: 20 October)

Event Time Altitude Azimuth Distance (km) Brightness Sun altitude
Rises 19:15:38 0° 296° (WNW) 2,639 7.1 -19.2°
Reaches altitude 10° 19:17:55 10° 298° (WNW) 1,740 6.1 -19.8°
Maximum altitude 19:21:57 70° 22° (NNE) 542 2.5 -20.8°
Enters shadow 19:22:08 68° 46° (NE) 547 2.5 -20.8°
